This demonstration page uses our WeatherBlox Daily Observations layout. Learn more.

Left ArrowRight Arrow

Hourly Observations for May 23, 2017

Temp ( °F °C ) Dew Point ( °F °C ) Humidity (%) Winds ( mph kmh ) Pressure ( in mb ) Visibility ( mi km ) Precip ( " mm )
12:15 am 00:15 Clear 64 18 57 14 78 78 N 8 13 30.00 1016 10 16 N/A
12:35 am 00:35 Clear 64 18 55 13 73 73 N 5 7 30.00 1016 10 16 N/A
12:55 am 00:55 Clear 63 17 54 12 73 73 N 8 13 30.00 1016 10 16 N/A
1:15 am 01:15 Clear 63 17 54 12 73 73 NNW 8 13 29.97 1015 10 16 N/A
1:35 am 01:35 Clear 63 17 54 12 73 73 N 7 11 29.97 1015 10 16 N/A
1:55 am 01:55 Clear 61 16 54 12 77 77 NNW 8 13 29.97 1015 10 16 N/A
2:15 am 02:15 Clear 59 15 52 11 77 77 NNW 8 13 29.97 1015 10 16 N/A
2:35 am 02:35 Clear 61 16 52 11 72 72 N 5 7 29.97 1015 10 16 N/A
2:55 am 02:55 Clear 61 16 52 11 72 72 N 5 7 29.97 1015 10 16 N/A
3:15 am 03:15 Clear 61 16 52 11 72 72 N 5 7 29.97 1015 10 16 N/A
3:35 am 03:35 Clear 61 16 52 11 72 72 NNW 7 11 29.97 1015 10 16 N/A
3:55 am 03:55 Clear 59 15 52 11 77 77 N N/A 29.97 1015 10 16 N/A
4:15 am 04:15 Clear 59 15 52 11 77 77 N 6 9 29.97 1015 10 16 N/A
4:35 am 04:35 Clear 59 15 54 12 82 82 N 6 9 29.97 1015 10 16 N/A
4:55 am 04:55 Clear 57 14 54 12 88 88 N 5 7 29.97 1015 10 16 N/A
5:15 am 05:15 Clear 57 14 54 12 88 88 N 5 7 29.97 1015 10 16 N/A
5:35 am 05:35 Clear 57 14 54 12 88 88 N 3 6 29.97 1015 10 16 N/A
5:55 am 05:55 Sunny 57 14 54 12 88 88 N N/A 29.97 1015 10 16 N/A
6:15 am 06:15 Sunny 59 15 54 12 82 82 N 3 6 29.97 1015 10 16 N/A
6:35 am 06:35 Sunny 57 14 54 12 88 88 N N/A 29.97 1015 10 16 N/A
6:55 am 06:55 Partly Cloudy 59 15 54 12 82 82 N N/A 29.97 1015 10 16 N/A
7:15 am 07:15 Partly Cloudy 59 15 54 12 82 82 NNE 3 6 29.97 1015 10 16 N/A
7:35 am 07:35 Partly Cloudy 59 15 54 12 82 82 NNE 3 6 29.97 1015 10 16 N/A
7:55 am 07:55 Mostly Cloudy 59 15 54 12 82 82 NNE 6 9 29.97 1015 10 16 N/A
8:15 am 08:15 Cloudy 59 15 54 12 82 82 N 3 6 29.97 1015 10 16 N/A
8:35 am 08:35 Mostly Cloudy 59 15 54 12 82 82 NNE 6 9 29.97 1015 10 16 N/A
8:55 am 08:55 Partly Cloudy 59 15 55 13 88 88 NNE 3 6 29.97 1015 10 16 N/A
9:15 am 09:15 Mostly Cloudy 59 15 54 12 82 82 NNE 5 7 30.00 1016 10 16 N/A
9:35 am 09:35 Cloudy 61 16 54 12 77 77 NNE 8 13 30.00 1016 10 16 N/A
9:55 am 09:55 Mostly Cloudy 61 16 54 12 77 77 NE 5 7 29.97 1015 10 16 N/A
10:15 am 10:15 Mostly Cloudy 61 16 55 13 83 83 NE 3 6 29.97 1015 10 16 N/A
10:35 am 10:35 Mostly Cloudy 63 17 55 13 77 77 NE 5 7 29.97 1015 10 16 N/A
10:55 am 10:55 Partly Cloudy 63 17 55 13 77 77 N N/A 29.97 1015 10 16 N/A
11:15 am 11:15 Sunny 63 17 57 14 83 83 ESE 6 9 29.97 1015 10 16 N/A
11:35 am 11:35 Partly Cloudy 64 18 57 14 78 78 SE 7 11 29.97 1015 10 16 N/A
11:55 am 11:55 Mostly Cloudy 64 18 57 14 78 78 E 7 11 29.97 1015 10 16 N/A
12:15 pm 12:15 Cloudy 64 18 57 14 78 78 ESE 6 9 29.94 1014 10 16 N/A
12:35 pm 12:35 Cloudy with Light Rain 64 18 57 14 78 78 E 5 7 29.94 1014 10 16 N/A
12:55 pm 12:55 Cloudy with Drizzle 64 18 57 14 78 78 NE 5 7 29.94 1014 10 16 N/A
1:15 pm 13:15 Cloudy with Drizzle 64 18 57 14 78 78 ENE 7 11 29.94 1014 10 16 N/A
1:35 pm 13:35 Cloudy 64 18 57 14 78 78 ENE 6 9 29.91 1013 10 16 N/A
1:55 pm 13:55 Cloudy with Drizzle 64 18 55 13 73 73 E 3 6 29.91 1013 10 16 N/A
2:15 pm 14:15 Cloudy with Light Rain 63 17 57 14 83 83 N N/A 29.91 1013 10 16 N/A
2:35 pm 14:35 Cloudy with Light Rain 63 17 59 15 88 88 NE 5 7 29.91 1013 10 16 N/A
2:55 pm 14:55 Cloudy with Light Rain 63 17 59 15 88 88 NE 3 6 29.91 1013 10 16 0.01 0.25
3:15 pm 15:15 Cloudy with Light Rain 63 17 59 15 88 88 E 3 6 29.88 1012 10 16 N/A
3:35 pm 15:35 Cloudy with Light Rain 63 17 59 15 88 88 ENE 3 6 29.88 1012 10 16 N/A
3:55 pm 15:55 Cloudy with Drizzle 63 17 59 15 88 88 NE 5 7 29.88 1012 10 16 N/A
4:15 pm 16:15 Cloudy 63 17 59 15 88 88 NE 5 7 29.88 1012 10 16 N/A
4:35 pm 16:35 Cloudy 63 17 59 15 88 88 NNE 5 7 29.85 1011 10 16 N/A
4:55 pm 16:55 Cloudy 63 17 59 15 88 88 NE 5 7 29.85 1011 10 16 N/A
5:15 pm 17:15 Cloudy 63 17 59 15 88 88 NE 5 7 29.85 1011 10 16 N/A
5:35 pm 17:35 Cloudy with Drizzle 63 17 59 15 88 88 NNE 6 9 29.85 1011 10 16 N/A
5:55 pm 17:55 Cloudy with Light Rain 61 16 59 15 94 94 NNE 6 9 29.83 1010 7 11 N/A
6:15 pm 18:15 Cloudy 61 16 59 15 94 94 NNE 6 9 29.83 1010 10 16 N/A
6:35 pm 18:35 Cloudy 61 16 59 15 94 94 NNE 6 9 29.83 1010 10 16 N/A
6:55 pm 18:55 Cloudy with Light Rain 61 16 59 15 94 94 NNE 5 7 29.83 1010 10 16 N/A
7:15 pm 19:15 Cloudy with Light Rain 61 16 59 15 94 94 NE 6 9 29.83 1010 7 11 0.01 0.25
7:35 pm 19:35 Cloudy with Rain 61 16 61 16 100 100 NE 5 7 29.83 1010 7 11 0.01 0.25
7:55 pm 19:55 Cloudy with Light Rain 61 16 61 16 100 100 NE 5 7 29.83 1010 5 8 0.01 0.25
8:15 pm 20:15 Cloudy with Light Rain 61 16 61 16 100 100 ENE 3 6 29.83 1010 7 11 N/A
8:35 pm 20:35 Cloudy with Drizzle 61 16 61 16 100 100 N N/A 29.80 1009 7 11 N/A
8:55 pm 20:55 Cloudy with Light Rain 61 16 61 16 100 100 NE 3 6 29.80 1009 5 8 0.01 0.25
9:15 pm 21:15 Cloudy with Light Rain 61 16 61 16 100 100 NE 3 6 29.80 1009 5 8 0.01 0.25
9:35 pm 21:35 Cloudy with Rain 61 16 61 16 100 100 NNE 5 7 29.80 1009 4 6 0.02 0.51
9:55 pm 21:55 Cloudy with Drizzle 61 16 61 16 100 100 NE 5 7 29.80 1009 4 6 0.02 0.51
10:15 pm 22:15 Cloudy with Drizzle 59 15 59 15 100 100 NE 7 11 29.80 1009 3 5 N/A
10:35 pm 22:35 Cloudy with Drizzle 59 15 59 15 100 100 N N/A 29.80 1009 4 6 0.01 0.25
10:55 pm 22:55 Cloudy with Mist and Fog 59 15 59 15 100 100 NNE 6 9 29.77 1008 3 5 0.01 0.25
11:15 pm 23:15 Cloudy with Light Rain 59 15 59 15 100 100 NNE 5 7 29.77 1008 3 5 N/A
11:35 pm 23:35 Cloudy with Light Rain 59 15 59 15 100 100 N N/A 29.77 1008 3 5 N/A
11:55 pm 23:55 Cloudy with Light Rain 59 15 59 15 100 100 N 5 7 29.77 1008 3 5 0.01 0.25

Powered by AerisWeather